Wind_Speed
40 40 39 38 39 39 39 39 38 38 37 37 36 37 37 37 37 37 37 36 35 35 35 35 35 34 34 34 34 34 35 35 35 35 36 37 38 39 40 41 42 43 43
41 41 41 41 41 41 42 42 41 41 41 40 40 40 41 42 41 40 40 38 38 38 38 37 37 36 36 35 35 36 36 36 36 37 37 38 39 40 40 41 42 43 44
42 43 43 44 44 44 44 44 45 45 44 44 44 44 44 43 43 42 42 41 41 41 40 40 39 38 37 37 36 36 36 37 37 37 38 39 40 41 41 42 43 44 45
42 43 44 45 46 46 47 47 48 48 48 48 47 47 46 45 45 45 45 45 45 44 43 42 41 39 38 38 38 37 37 38 38 38 39 40 41 41 42 43 44 45 46
42 43 45 46 47 49 50 50 51 52 52 52 51 51 50 49 48 47 47 47 47 46 45 44 43 42 41 40 39 39 38 38 39 40 40 41 42 42 43 44 44 46 47
43 45 47 48 50 52 53 54 55 55 56 56 56 55 54 52 51 49 49 49 49 48 47 46 45 44 43 42 41 40 40 40 40 41 41 42 43 44 44 45 45 46 48
45 48 50 51 53 54 55 56 57 58 59 59 59 59 58 56 54 52 51 50 50 49 48 48 47 46 45 43 42 42 41 41 42 42 43 43 45 45 47 47 48 48 49
47 49 51 52 54 55 56 58 58 58 59 60 60 60 60 58 56 54 52 51 51 50 49 48 48 46 45 44 43 43 42 43 43 44 44 45 47 47 48 49 51 51 52
45 47 50 52 53 55 56 57 58 58 58 58 59 59 58 59 58 55 53 52 52 51 49 49 48 47 45 44 44 43 42 43 44 45 46 47 48 49 50 52 54 55 56
44 46 49 51 52 53 54 55 56 57 58 58 57 58 58 57 56 55 53 52 51 50 49 48 48 46 45 44 43 42 42 43 44 45 47 49 51 52 53 56 58 59 60
43 46 48 49 51 52 53 53 53 53 54 55 56 57 57 56 55 54 53 51 50 49 48 47 46 45 44 43 42 41 42 43 44 46 49 51 53 55 56 58 60 62 64
43 46 48 50 51 51 49 49 48 49 50 51 52 54 54 54 53 52 51 49 48 47 46 45 43 42 42 41 40 41 42 44 46 48 51 53 56 58 60 61 63 64 66
41 44 45 47 47 46 44 43 42 43 44 45 47 49 50 51 50 50 48 46 45 44 43 41 40 40 39 39 39 40 43 45 47 50 53 56 59 60 62 63 65 66 67
39 40 39 39 38 36 35 34 35 36 38 39 41 43 45 46 46 45 44 42 41 40 38 38 37 37 36 36 38 40 44 46 49 53 56 59 60 62 64 65 66 68 69
34 32 32 31 28 26 25 25 27 28 30 33 35 36 38 41 41 40 39 37 36 35 34 34 34 33 34 36 38 41 46 49 52 56 59 61 62 64 65 67 68 69 70
28 26 24 22 18 16 15 15 17 20 23 26 28 29 31 34 34 33 32 32 31 31 31 31 31 32 34 36 39 44 48 51 55 57 60 62 63 65 66 68 69 71 72
23 22 19 15 11 8 8 8 11 14 18 20 23 24 26 27 28 28 27 27 27 27 27 28 29 31 35 39 43 47 51 53 56 59 61 62 64 65 67 68 70 72 76
20 18 16 12 9 4 1 5 8 12 15 17 19 21 22 23 22 22 22 22 23 24 25 27 30 34 38 42 46 49 51 54 57 59 61 62 63 65 67 70 72 76 80
17 16 14 12 10 8 8 9 11 14 15 17 18 19 19 19 19 18 19 19 21 22 25 30 34 36 40 43 46 49 52 54 56 58 60 62 64 67 70 73 76 79 81
15 14 12 11 11 11 12 12 14 15 15 16 16 16 16 16 16 17 18 20 23 26 29 31 34 37 40 44 47 49 51 53 55 58 61 64 67 71 73 75 77 77 77
12 11 11 11 11 11 12 12 13 14 14 14 14 13 13 13 14 16 18 20 23 26 28 30 34 38 41 44 47 49 51 53 56 59 63 66 70 73 75 76 75 73 69
9 9 9 10 10 10 11 11 11 11 10 9 9 10 10 11 13 16 18 20 23 26 29 32 35 38 41 43 46 49 52 55 58 62 66 70 72 74 74 72 69 64 57
8 7 7 7 7 8 7 7 7 6 5 4 5 6 7 10 12 15 17 21 24 27 30 32 35 38 41 43 47 50 54 58 62 66 70 72 72 71 68 63 57 51 45
7 6 5 5 5 5 5 4 3 2 0 2 4 6 8 11 13 16 19 22 25 28 30 33 35 38 42 45 49 53 57 62 66 69 70 70 67 63 57 51 45 40 39
6 5 5 4 4 4 4 4 3 4 4 6 7 9 11 13 16 18 21 24 26 28 30 33 37 40 44 48 52 56 60 64 67 67 66 62 57 51 45 40 37 36 36
5 5 5 5 5 5 5 5 5 6 8 9 11 13 14 16 18 20 22 24 27 29 32 35 39 43 47 51 55 58 62 64 64 61 56 51 45 40 36 33 33 34 34
Wind_Direction
251 251 251 250 248 248 248 249 250 251 252 253 256 258 261 261 262 263 266 268 270 271 272 272 273 274 276 278 280 282 284 286 287 288 288 288 289 289 288 287 285 285 285
250 251 252 251 251 250 250 250 251 251 252 253 255 257 259 261 263 264 266 268 269 270 271 272 273 274 275 277 279 281 283 285 288 289 289 290 290 290 290 289 288 288 288
251 251 252 253 253 253 253 253 253 253 253 254 255 256 258 261 263 265 266 266 266 266 268 270 271 272 273 275 277 280 282 285 287 288 289 290 290 291 290 290 290 290 290
253 254 254 255 255 255 255 255 255 255 255 255 256 257 259 261 263 263 263 263 264 265 266 268 269 270 272 274 277 279 282 284 286 287 289 289 290 290 290 290 290 291 291
256 257 257 258 258 258 259 258 258 258 257 257 257 257 259 259 260 261 262 263 263 263 264 265 267 269 271 274 276 279 281 283 286 287 288 289 290 290 291 291 291 292 293
259 260 261 261 261 261 261 260 260 259 259 258 257 258 258 258 258 259 259 260 261 261 262 263 265 267 270 273 276 278 281 283 285 287 288 289 290 291 292 292 293 293 294
262 263 263 263 263 262 261 261 260 259 258 257 257 257 257 257 257 257 257 257 258 259 261 262 263 266 269 272 275 277 280 282 284 287 288 288 291 291 292 293 293 294 294
267 267 267 266 265 264 263 261 260 258 257 256 255 255 255 255 255 254 254 255 255 257 259 260 262 264 267 270 273 276 278 280 283 286 287 288 291 292 293 293 294 294 294
274 273 272 270 268 266 264 262 260 258 256 254 253 252 252 252 252 251 251 252 253 255 257 259 260 263 266 269 272 275 277 279 282 286 287 289 292 293 293 294 295 295 294
280 279 277 275 273 270 267 264 261 258 255 253 252 250 249 249 248 248 248 249 251 252 254 257 259 262 265 267 271 273 276 279 283 286 288 291 292 293 293 294 295 295 295
286 285 283 280 277 274 271 267 263 258 255 251 249 247 245 245 245 244 245 246 247 250 252 255 258 261 264 267 270 272 276 280 284 287 290 292 293 293 293 294 295 296 296
292 291 288 285 281 277 273 268 262 257 253 249 246 243 241 241 241 240 241 243 245 247 250 254 257 260 263 267 270 273 278 281 285 288 290 291 292 292 294 295 295 296 297
299 296 292 289 284 279 273 267 260 254 249 245 242 240 238 237 236 236 237 239 242 245 249 253 256 260 264 267 271 275 279 282 285 288 290 290 291 292 294 295 296 297 297
307 303 298 294 288 281 273 265 257 251 246 241 237 236 234 233 231 231 233 235 239 243 248 252 256 261 265 269 273 276 280 284 286 288 288 290 292 293 295 296 297 298 299
318 313 307 302 294 284 274 263 253 245 238 232 230 230 229 227 226 227 228 232 237 241 246 252 257 262 268 272 275 278 281 283 284 285 289 292 293 295 296 298 299 299 299
331 328 321 315 304 288 272 255 242 232 225 220 219 220 220 219 219 220 224 230 234 240 246 252 259 264 268 272 276 279 280 282 284 288 292 294 296 297 299 300 300 301 301
343 343 340 335 323 300 270 236 213 204 202 203 205 205 206 208 211 215 221 227 232 239 247 253 260 265 271 274 275 278 282 286 289 292 294 296 298 299 300 301 302 302 302
355 358 0 5 9 20 117 169 177 180 182 184 186 188 191 196 203 209 218 227 235 243 250 257 263 268 272 275 279 282 285 289 292 294 296 298 300 301 301 302 303 303 303
6 12 20 31 44 63 92 117 133 145 155 162 167 174 180 187 196 207 217 228 239 249 259 262 266 272 277 280 283 287 291 294 296 298 299 300 301 302 302 303 304 305 305
15 24 33 48 62 78 97 112 123 132 140 148 157 167 175 185 196 211 226 236 244 253 262 269 274 278 283 286 290 293 295 298 300 301 302 303 304 304 304 305 306 306 307
21 32 46 59 72 85 97 109 119 127 136 145 158 174 191 202 212 224 235 246 257 265 272 278 282 286 289 293 295 297 299 301 302 303 304 304 305 305 306 307 307 308 309
20 35 54 67 76 86 96 107 115 125 138 155 175 187 198 215 231 240 251 262 270 276 281 286 290 293 296 298 300 302 303 304 304 305 306 306 306 307 308 309 309 310 310
17 30 47 65 75 81 85 94 104 115 140 166 198 223 234 246 259 267 274 280 284 288 292 295 298 300 301 303 304 305 306 307 307 308 308 308 308 309 310 311 311 312 313
8 21 35 48 58 53 50 52 69 75 142 265 271 274 276 279 282 285 288 291 294 297 299 301 303 304 306 307 308 308 309 309 310 310 310 310 311 311 312 313 314 315 316
355 3 11 15 16 18 18 9 359 343 325 313 303 298 295 294 295 297 298 300 301 303 305 306 307 308 309 310 310 311 311 312 312 312 312 313 313 314 315 316 317 318 319
328 339 346 350 351 351 347 340 330 322 315 309 305 303 303 303 304 305 305 306 307 307 308 309 310 311 312 312 313 314 315 315 315 315 316 316 317 318 320 321 321 322 323
Height
5757 5758 5760 5762 5764 5766 5767 5769 5770 5772 5773 5774 5775 5776 5777 5778 5779 5780 5780 5780 5780 5780 5780 5779 5779 5778 5778 5777 5776 5775 5773 5772 5770 5768 5766 5764 5762 5760 5757 5755 5753 5751 5749
5748 5750 5751 5753 5755 5756 5758 5759 5761 5762 5764 5765 5767 5767 5767 5768 5769 5771 5772 5772 5772 5771 5771 5771 5771 5770 5770 5769 5768 5767 5765 5764 5762 5760 5758 5756 5754 5751 5748 5746 5744 5741 5739
5740 5741 5742 5743 5745 5746 5748 5749 5751 5752 5754 5755 5756 5757 5757 5758 5760 5762 5763 5763 5762 5762 5762 5762 5762 5762 5762 5761 5760 5759 5757 5756 5754 5752 5750 5748 5745 5743 5740 5737 5734 5731 5728
5730 5731 5732 5733 5734 5736 5737 5738 5739 5741 5742 5743 5745 5746 5748 5749 5751 5751 5752 5752 5752 5753 5753 5753 5753 5753 5753 5752 5751 5750 5749 5747 5745 5743 5741 5739 5736 5734 5731 5728 5725 5721 5718
5720 5721 5722 5723 5723 5724 5724 5725 5726 5728 5729 5731 5733 5734 5736 5738 5739 5740 5741 5741 5742 5743 5743 5744 5744 5744 5744 5743 5742 5741 5740 5738 5736 5734 5732 5730 5727 5724 5721 5719 5715 5711 5707
5710 5710 5711 5711 5711 5711 5711 5711 5712 5713 5714 5716 5719 5721 5723 5725 5727 5728 5729 5730 5730 5732 5733 5734 5734 5734 5734 5734 5733 5732 5731 5729 5727 5725 5723 5720 5717 5714 5711 5708 5705 5701 5696
5699 5699 5699 5698 5697 5696 5696 5696 5697 5698 5698 5700 5703 5706 5708 5711 5713 5715 5717 5718 5719 5720 5722 5723 5724 5724 5724 5724 5723 5722 5721 5719 5718 5715 5713 5710 5707 5704 5701 5697 5694 5690 5686
5686 5686 5684 5683 5682 5681 5680 5679 5679 5681 5682 5683 5686 5689 5693 5696 5698 5701 5704 5705 5707 5709 5711 5712 5713 5714 5714 5714 5714 5713 5711 5709 5708 5706 5703 5700 5697 5693 5689 5685 5681 5677 5674
5673 5671 5669 5667 5665 5663 5662 5661 5662 5663 5665 5666 5669 5673 5677 5680 5683 5687 5690 5693 5695 5697 5700 5701 5703 5704 5704 5704 5704 5703 5701 5700 5698 5695 5692 5689 5685 5681 5677 5672 5668 5663 5659
5659 5656 5653 5650 5647 5645 5643 5642 5643 5644 5647 5650 5653 5656 5660 5664 5668 5672 5676 5680 5683 5686 5688 5690 5692 5693 5694 5694 5693 5693 5692 5690 5687 5685 5681 5677 5673 5668 5664 5659 5653 5648 5643
5645 5640 5636 5632 5628 5626 5624 5623 5623 5625 5627 5631 5635 5639 5644 5648 5653 5658 5663 5667 5671 5675 5678 5680 5682 5683 5684 5684 5684 5683 5682 5680 5677 5674 5670 5665 5661 5656 5650 5645 5639 5633 5627
5631 5625 5619 5614 5609 5606 5604 5604 5605 5606 5609 5613 5618 5623 5628 5633 5639 5645 5650 5656 5660 5664 5668 5670 5672 5674 5674 5675 5674 5674 5672 5670 5666 5663 5658 5653 5648 5642 5637 5631 5625 5618 5611
5618 5611 5604 5597 5591 5588 5586 5586 5587 5589 5593 5597 5602 5608 5614 5620 5626 5633 5639 5645 5650 5655 5659 5662 5664 5665 5665 5665 5665 5664 5662 5659 5655 5651 5646 5641 5635 5629 5623 5616 5610 5602 5595
5606 5597 5589 5582 5576 5572 5570 5570 5572 5575 5579 5584 5590 5596 5602 5609 5616 5623 5630 5637 5642 5647 5651 5654 5655 5656 5656 5656 5655 5654 5651 5648 5643 5639 5634 5628 5621 5615 5608 5601 5594 5586 5578
5596 5587 5579 5571 5565 5561 5560 5559 5561 5565 5569 5575 5581 5587 5594 5601 5609 5616 5624 5630 5635 5640 5643 5646 5647 5648 5648 5647 5646 5644 5640 5636 5631 5626 5620 5614 5607 5600 5593 5585 5577 5569 5561
5591 5582 5573 5566 5560 5557 5555 5554 5556 5559 5563 5569 5575 5582 5589 5597 5605 5612 5619 5624 5629 5633 5636 5638 5639 5639 5639 5638 5636 5633 5629 5624 5619 5613 5607 5600 5593 5585 5577 5568 5560 5550 5541
5588 5580 5572 5565 5560 5556 5554 5553 5555 5557 5562 5567 5573 5580 5587 5595 5602 5609 5615 5620 5624 5627 5629 5631 5632 5632 5630 5628 5625 5622 5617 5612 5607 5600 5593 5586 5578 5569 5561 5552 5543 5532 5520
5588 5581 5574 5568 5563 5559 5557 5556 5557 5560 5564 5569 5574 5580 5587 5594 5600 5606 5611 5615 5619 5621 5623 5624 5624 5623 5621 5618 5615 5611 5606 5600 5594 5587 5580 5572 5563 5554 5545 5537 5526 5514 5502
5590 5584 5578 5572 5568 5564 5563 5562 5563 5565 5568 5572 5577 5582 5588 5593 5599 5604 5608 5612 5614 5616 5616 5617 5616 5614 5612 5609 5605 5600 5594 5588 5581 5573 5565 5557 5548 5539 5530 5520 5509 5496 5483
5593 5587 5582 5578 5574 5571 5570 5569 5570 5571 5574 5577 5581 5585 5590 5594 5598 5602 5605 5607 5609 5610 5610 5609 5608 5605 5602 5598 5594 5589 5583 5576 5568 5560 5551 5542 5532 5522 5511 5500 5489 5477 5464
5596 5591 5587 5583 5580 5578 5577 5576 5576 5577 5579 5581 5584 5588 5591 5594 5597 5600 5602 5603 5604 5604 5603 5602 5599 5596 5592 5588 5583 5577 5570 5563 5555 5546 5537 5526 5516 5504 5493 5481 5470 5458 5447
5598 5594 5591 5588 5586 5584 5582 5582 5582 5583 5584 5586 5588 5590 5592 5594 5596 5597 5598 5599 5599 5598 5596 5594 5591 5587 5582 5577 5571 5565 5557 5550 5541 5532 5521 5510 5498 5487 5475 5463 5452 5441 5431
5599 5597 5594 5592 5590 5589 5588 5587 5587 5587 5588 5589 5590 5591 5593 5594 5594 5595 5594 5594 5593 5591 5588 5585 5581 5577 5572 5566 5560 5552 5544 5535 5526 5516 5504 5493 5481 5469 5458 5447 5437 5428 5419
5600 5598 5596 5594 5593 5592 5591 5590 5590 5590 5590 5590 5591 5591 5592 5592 5591 5591 5590 5588 5586 5583 5580 5576 5572 5567 5562 5556 5548 5540 5531 5521 5510 5499 5487 5475 5464 5453 5443 5434 5425 5418 5411
5601 5599 5597 5596 5595 5594 5593 5592 5591 5591 5591 5591 5590 5590 5589 5588 5587 5586 5584 5582 5579 5576 5572 5568 5564 5558 5552 5544 5536 5527 5517 5506 5495 5482 5470 5459 5449 5439 5431 5423 5416 5410 5402
5601 5599 5598 5597 5595 5594 5593 5593 5592 5591 5590 5590 5589 5587 5586 5584 5582 5580 5578 5575 5572 5569 5565 5560 5555 5548 5541 5533 5524 5514 5503 5491 5478 5467 5456 5446 5437 5429 5422 5416 5409 5403 5396